Terminal Aerodrome Forecast
Issued by NWS

Home | Current Version | Previous Version | Text Only | Print | Product List | Glossary On
Versions: 1 2 3 4 5 6 7 8 9 10 11 12
000
FTUS45 KVEF 211700
TAFBIH
TAF
KBIH 211736Z 2118/2218 VRB03KT P6SM BKN250
     FM220300 34009KT P6SM SCT250
     FM221600 35015G23KT P6SM FEW250=

USA.gov is the U.S. government's official web portal to all federal, state and local government web resources and services.